Weather History for KNTU - November, 2011

Change the Weather History Date:

Tuesday, November 8, 2011

  Actual Average Record
Temperature  
Mean Temperature 50 °F -  
Max Temperature 61 °F 59 °F 79 °F (1996)
Min Temperature 39 °F 42 °F 35 °F (1998)
Degree Days  
Heating Degree Days 15    
Moisture  
Dew Point 46 °F    
Average Humidity 89    
Maximum Humidity 100    
Minimum Humidity 67    
Precipitation  
Precipitation 0.00 in - - ()
Sea Level Pressure  
Sea Level Pressure 30.26 in    
Wind  
Wind Speed 1 mph (ENE)    
Max Wind Speed 7 mph    
Max Gust Speed -    
Visibility 6 miles    
Events Fog    
Averages and records for this station are not official NWS values.
T = Trace of Precipitation, MM = Missing Value Source: NWS Daily Summary

Daily Weather History Graph

Daily Weather History Graph

Search for Another Location

Airport or City:

Trip Planner

Search our weather history database for the weather conditions in past years. The results will help you decide how hot, cold, wet, or windy it might be!

Date:

Astronomy

Nov. 08, 2011 Rise Set
Actual Time 6:34 AM EST 5:00 PM EST
Civil Twilight 6:07 AM EST 5:27 PM EST
Nautical Twilight 5:36 AM EST 5:58 PM EST
Astronomical Twilight 5:06 AM EST 6:28 PM EST
Moon 3:38 PM EST (11/8) 4:33 AM EST (11/8)
Length of Visible Light 11h 20m
Length of Day
10h 25m
Waxing Gibbous, 96% of the Moon is Illuminated
Nov 8
Waxing Gibbous
Nov 10
Full
Nov 18
Last Quarter
Nov 25
New
Dec 2
First Quarter

Hourly Weather History & Observations

Time (EST) Temp. Windchill Dew Point Humidity Pressure Visibility Wind Dir Wind Speed Gust Speed Precip Events Conditions
12:56 AM 43.0 °F - 41.0 °F 93% 30.30 in 3.0 mi Calm Calm - N/A   Scattered Clouds
1:56 AM 42.1 °F - 39.9 °F 92% 30.28 in 4.0 mi Calm Calm - N/A   Scattered Clouds
2:56 AM 41.0 °F - 39.9 °F 96% 30.27 in 6.0 mi Calm Calm - N/A   Partly Cloudy
3:56 AM 41.0 °F - 39.0 °F 93% 30.27 in 6.0 mi Calm Calm - N/A   Clear
4:56 AM 39.9 °F - 39.0 °F 97% 30.27 in 0.5 mi Calm Calm - N/A Fog Fog
5:29 AM 39.2 °F - 39.2 °F 100% 30.27 in 1.0 mi Calm Calm - N/A   Mostly Cloudy
5:56 AM 39.0 °F - 39.0 °F 100% 30.28 in 0.2 mi Calm Calm - N/A Fog Fog
6:56 AM 39.9 °F - 39.0 °F 97% 30.29 in 0.1 mi Calm Calm - N/A Fog Fog
7:56 AM 45.0 °F - 44.1 °F 97% 30.30 in 0.1 mi Calm Calm - N/A Fog Fog
8:10 AM 46.4 °F - 46.4 °F 100% 30.29 in 0.2 mi Calm Calm - N/A Fog Fog
8:24 AM 48.2 °F - 48.2 °F 100% 30.29 in 1.2 mi Calm Calm - N/A   Partly Cloudy
8:43 AM 53.6 °F - 53.6 °F 100% 30.29 in 6.0 mi Calm Calm - N/A   Partly Cloudy
8:56 AM 55.0 °F - 54.0 °F 96% 30.30 in 9.0 mi Calm Calm - N/A   Partly Cloudy
9:56 AM 59.0 °F - 51.1 °F 75% 30.30 in 10.0 mi NE 5.8 mph - N/A   Partly Cloudy
10:56 AM 61.0 °F - 50.0 °F 67% 30.30 in 10.0 mi East 6.9 mph - N/A   Partly Cloudy
11:56 AM 61.0 °F - 50.0 °F 67% 30.27 in 10.0 mi East 5.8 mph - N/A   Partly Cloudy
12:56 PM 61.0 °F - 51.1 °F 70% 30.25 in 10.0 mi East 6.9 mph - N/A   Scattered Clouds
1:56 PM 61.0 °F - 52.0 °F 72% 30.23 in 10.0 mi East 4.6 mph - N/A   Partly Cloudy
2:56 PM 61.0 °F - 52.0 °F 72% 30.22 in 10.0 mi East 3.5 mph - N/A   Partly Cloudy
3:56 PM 59.0 °F - 52.0 °F 78% 30.22 in 10.0 mi ENE 6.9 mph - N/A   Partly Cloudy
4:56 PM 55.9 °F - 51.1 °F 84% 30.22 in 10.0 mi ENE 4.6 mph - N/A   Clear
5:56 PM 54.0 °F - 50.0 °F 86% 30.22 in 10.0 mi Calm Calm - N/A   Clear
6:56 PM 51.1 °F - 48.9 °F 92% 30.23 in 10.0 mi Calm Calm - N/A   Clear
7:56 PM 50.0 °F - 48.0 °F 93% 30.22 in 10.0 mi Calm Calm - N/A   Clear
8:56 PM 50.0 °F - 46.9 °F 89% 30.23 in 10.0 mi Calm Calm - N/A   Clear
9:56 PM 46.0 °F - 44.1 °F 93% 30.24 in 3.0 mi Calm Calm - N/A   Scattered Clouds
10:18 PM 48.2 °F - 46.4 °F 93% 30.22 in 2.0 mi Calm Calm - N/A Fog Scattered Clouds
10:41 PM 46.4 °F 45.2 °F 44.6 °F 93% 30.22 in 1.5 mi North 3.5 mph - N/A Fog Mostly Cloudy
10:56 PM 45.0 °F - 44.1 °F 97% 30.22 in 1.0 mi Calm Calm - N/A Fog Mostly Cloudy
11:56 PM 46.0 °F - 44.1 °F 93% 30.21 in 1.0 mi Calm Calm - N/A   Mist